User: anonymous   Login
Location: Unspecified
(0.0000°N, 0.0000°E)
Time: 04:57:05
(UTC+00:00)
Language:

Uosat 5 - Orbit

View from above orbital plane
View from above orbital plane
View from above satellite
View from above satellite

Ground track
Ground track

The orbit data is extracted from the following two-line orbital elements,

1 21578U 91050E   18018.88127628  .00000091  00000-0  32744-4 0  9992
2 21578  98.4939  42.1120 0001764 291.8966 190.0726 14.53956374399795
Epoch (UTC): 18 January 2018 21:09:02
Eccentricity: 0.0001764
inclination: 98.4939°
perigee height: 711 km
apogee height: 714 km
right ascension of ascending node: 42.1120°
argument of perigee: 291.8966°
revolutions per day: 14.53956374
mean anomaly at epoch: 190.0726°
orbit number at epoch: 39979

The dashed part of the orbit path shows where the satellite is in the earth's shadow,  

DLR